www.pogodaiklimat.ru

Погода и климат >> Архив погоды >> Румыния >> Бая-Маре


ПОГОДА в Бая-Маре

  • Прогноз погоды в Бая-Маре
  • Монитор погоды в Бая-Маре

АРХИВ ПОГОДЫ в Бая-Маре

Время (UTC), дата Ветер
(напр.,м/с)
 
Видим.   Явления Облачность Т
(С)
Тd
(С)
f
(%)
Тe
(С)
Тes
(С)
Комфортность P
(гПа)
Po
(гПа)
Тmin
(С)
Tmax
(С)
R
(мм)
R24
(мм)
S
(см)
15 16.09 З 1-3
{3}
20 км 6/6 1000 м
[Cu med, cong]
+25.3 +11.0 41 +27 +27 жарко 1014.5 992.9
18 16.09 СВ 3-5
{5}
20 км 6/6 1000 м
[Sc]
+20.8 +12.8 60 +24 +24 комфорт 1014.1 992.2 +10.9 +26.4 0
21 16.09 С 4-5
{5}
20 км 8/8 1000 м
[Sc]
+18.4 +12.6 69 +19 +19 1013.8 991.7
00 17.09 С 4-6
{6}
20 км 9/0
[Ac As]
+16.4 +12.2 76 +16 +16 1013.5 991.3 0
03 17.09 СВ 2-3
{4}
20 км 10/0
[Ac As]
+15.3 +13.3 88 +15 +15 1013.5 991.2
06 17.09 СВ 2-3
{3}
10 км в посл. час ливневой дождь 10/6 1000 м
[Cb calv Cs]
+15.6 +14.0 90 +15 +16 1013.9 991.6 +14.7 +20.8 0.3 0
09 17.09 ЮВ 2-3
{3}
10 км {ливн. осадки} 10/5 600 м
[Sc Ac As]
+16.4 +14.5 89 +16 +18 1014.0 991.8 0.5
12 17.09 В 3-4
{4}
20 км {ливн. осадки} 9/6 1000 м
[Cb calv Ac As]
+18.1 +14.1 77 +18 +20 1012.8 990.8 0.5 0
15 17.09 Ю 1-2
{3}
10 км {ливн. осадки} 6/5 600 м
[Cb calv Ac cuf]
+19.0 +14.8 77 +21 +22 комфорт 1011.0 989.1 0.6
18 17.09 С 1-2
{3}
20 км {ливн. осадки} 9/6 1000 м
[Cb calv Cs]
+17.2 +15.4 89 +18 +18 1010.7 988.6 +15.6 +20.1 1 0
21 17.09 В 1-2
{2}
20 км 6/6 1000 м
[Sc]
+15.0 +13.1 88 +15 +15 1011.0 988.7
00 18.09 СЗ 3-5
{5}
20 км 8/4 1000 м
[Sc Ac As]
+14.7 +11.3 80 +14 +14 1011.3 989.1 0
03 18.09 СЗ 5-8
{8}
20 км 9/5 1000 м
[Sc Ac As]
+13.6 +11.1 85 +12 +12 1012.3 990.0
06 18.09 З 5-8
{8}
20 км 6/6 1000 м
[Sc]
+12.0 +4.5 60 +10 +10 1015.4 992.8 +11.3 +17.5 0
09 18.09 СЗ 6-12
{12}
20 км 3/3 1000 м
[Cu Sc]
+15.3 +0.5 36 +14 +16 1018.1 995.7
12 18.09 З 7-11
{14}
20 км 4/4 1000 м
[Cu med, cong]
+16.3 -0.4 32 +15 +16 1019.0 996.7 0
15 18.09 СЗ 6-9
{13}
20 км 1/1 1000 м
[Cu med, cong]
+16.3 -0.6 32 +15 +16 1019.9 997.5
18 18.09 СВ 2-4
{4}
20 км ясно +10.8 +1.5 53 +10 +10 1021.4 998.6 +10.8 +17.6 0
21 18.09 С 4-7
{7}
20 км ясно +8.2 +1.2 61 +5 +5 1022.9 999.8
00 19.09 С 3-4
{4}
20 км ясно +6.3 +1.3 70 +3 +3 1023.3 1000.1 0
03 19.09 В 1-1
{3}
20 км 6/6 1000 м
[Sc]
+5.5 +1.8 77 +4 +4 1022.8 999.6
06 19.09 В 1-1
{2}
20 км 4/4 1000 м
[Sc]
+6.1 +2.3 77 +5 +6 1023.5 1000.3 +3.2 +11.0
09 19.09 З 2-3
{4}
20 км 3/1 1000 м
[Sc Ac lent]
+13.2 +2.2 47 +13 +19 1023.5 1000.9
12 19.09 СЗ 4-7
{9}
20 км 6/5 1000 м
[Cu med, cong Ac lent]
+15.7 +0.6 36 +15 +17 1022.4 1000.0
15 19.09 СЗ 2-3
{8}
20 км 5/4 1000 м
[Cb calv Ac cuf]
+15.7 +0.1 35 +16 +17 1022.2 999.8
18 19.09 С 4-6
{6}
20 км 1/1 1000 м
[Sc diur, vesp]
+13.1 +0.4 42 +12 +12 1022.8 1000.2 +5.7 +18.3
21 19.09 С 4-6
{6}
20 км 4/4 1500 м
[Sc]
+8.5 +1.7 62 +6 +6 1024.3 1001.3
00 20.09 С 1-2
{4}
20 км 3/1 1500 м
[Sc Ac lent]
+5.4 +1.3 75 +4 +4 1025.0 1001.7
03 20.09 СВ 2-3
{3}
20 км ясно +2.4 +0.8 89 -1 -1 1025.6 1002.0
06 20.09 штиль 0-1
{3}
20 км ясно +3.9 +1.9 87 +3 +5 1026.2 1002.7 +1.1 +13.1
09 20.09 З 5-8
{8}
20 км 4/3 1000 м
[Cu med, cong Ci fib]
+12.6 +3.2 53 +11 +14 1025.6 1002.8
12 20.09 З 5-9
{10}
20 км 6/6 1000 м
[Cu med, cong]
+15.7 -0.6 33 +15 +16 1024.6 1002.1
15 20.09 З 6-9
{11}
20 км 8/4 1000 м
[Cu med, cong Cs]
+14.7 -2.5 30 +13 +14 1024.3 1001.7
18 20.09 С 1-2
{3}
20 км 8/5 1000 м
[Sc Cs]
+11.0 -0.3 46 +11 +11 1025.8 1002.9 +3.9 +16.6
21 20.09 С 2-2
{3}
20 км 6/4 1000 м
[Sc Cs]
+7.5 +1.3 65 +6 +6 1027.3 1004.1
00 21.09 С 2-4
{5}
20 км 9/9 1000 м
[Sc]
+6.1 +2.0 75 +4 +4 1027.9 1004.6
03 21.09 СВ 2-4
{4}
20 км 5/0
[Cs]
+4.4 +2.3 86 +2 +2 1028.2 1004.7
06 21.09 В 1-1
{2}
20 км 6/0
[Cs]
+5.5 +2.4 80 +4 +6 1028.8 1005.4 +1.8 +11.3 0
09 21.09 ЮЗ 2-4
{4}
20 км 6/1 1000 м
[Cu hum Cs]
+13.1 +3.4 52 +13 +19 1028.5 1005.7
12 21.09 З 5-7
{8}
20 км 4/3 1000 м
[Cu med, cong Ci fib]
+17.0 +0.9 34 +16 +19 1027.1 1004.7 0
15 21.09 З 3-5
{6}
20 км 3/3 1000 м
[Sc diur, vesp]
+17.3 +1.0 33 +17 +18 1025.5 1003.1
18 21.09 С 4-6
{6}
20 км 3/0
[Ci fib]
+12.4 +3.2 53 +11 +11 1025.8 1003.1 +5.5 +18.2 0
21 21.09 С 5-7
{7}
20 км 1/0
[Ci fib]
+9.6 +3.0 63 +7 +7 1026.1 1003.1
00 22.09 СВ 2-4
{4}
20 км ясно +5.5 +2.5 81 +3 +3 1025.8 1002.5 0
03 22.09 В 1-1
{7}
20 км ясно +4.0 +2.5 90 +3 +3 1025.4 1001.9
06 22.09 ЮВ 2-2
{2}
20 км ясно +5.0 +2.6 84 +2 +4 1025.1 1001.7 +2.2 +12.4 0
09 22.09 ЮВ 1-3
{3}
20 км ясно +17.7 +3.3 38 +19 +28 1023.0 1000.7
12 22.09 ЮВ 1-5
{6}
20 км ясно +21.1 +2.2 29 +21 +30 комфорт 1020.3 998.3 0
15 22.09 ЮВ 1-4
{4}
20 км ясно +21.7 +2.1 27 +21 +23 комфорт 1017.6 995.7
18 22.09 С 5-8
{8}
20 км ясно +15.0 +4.4 49 +14 +14 1017.6 995.2 +5.0 +22.3 0
21 22.09 СВ 4-7
{7}
20 км ясно +12.2 +4.1 58 +10 +10 1017.9 995.3
00 23.09 СВ 1-2
{4}
20 км ясно +9.5 +4.0 69 +9 +9 1017.7 994.8 0
03 23.09 В 1-1
{2}
20 км 3/0
[Ci fib]
+5.2 +3.9 91 +4 +4 1017.3 994.1
06 23.09 ЮВ 1-2
{3}
20 км 10/0
[Cs]
+7.1 +5.3 88 +6 +7 1017.3 994.3 +3.9 +15.0 0
09 23.09 Ю 1-2
{3}
20 км 10/0
[Cs]
+20.2 +4.8 36 +22 +29 комфорт 1015.6 993.7
12 23.09 З 2-4
{4}
20 км 10/0
[Ac und Cs]
+22.2 +4.5 31 +22 +27 комфорт 1013.8 992.0 0

 

Местоположение метеостанции Бая-Маре (Румыния): широта 47.66 долгота 23.47 высота над уровнем моря 187 м.

В архиве по умолчанию представлена погода в Бая-Маре за последнюю неделю. Архивные данные за месяц целиком и за предыдущие месяцы, начиная с января 2011 года, Вы можете получить, выбрав интересующий диапазон дат из раскрывающегося списка и нажав кнопку "Ввод!".


*Определитесь, кто Вы:
робот инопланетянин человек

Внимание! Время в таблицах - всемирное. Для получения местного времени необходимо прибавить поправку, которая равна 2 ч.

Смотрите также архив погоды в соседних городах и на ближайших метеорологических станциях:

Погода в Окна Сугатаг (Румыния) (37 км)
Погода в Тыргу-Лэпуш (Румыния) (39 км)
Погода в Сату-Маре (Румыния) (45 км)
Погода в Сигету-Мармацией (Румыния) (45 км)
Погода в Супуру де Йос (Румыния) (56 км)
Погода в Хусте (Закарпатская область, Украина) (58 км)
Погода в Залэу (Румыния) (61 км)
Погода в Деже (Румыния) (67 км)
Погода в Рахове (Закарпатская область, Украина) (76 км)
Погода в Берегове (Закарпатская область, Украина) (88 км)

Пояснения к столбцам:

Ветер - указаны скорость ветра в м/с - средняя за 10 мин, порывы в срок и между сроками (в фигурных скобках) и направление, откуда дует ветер: С - северный, СВ - северо-восточный, В - восточный, ЮВ - юго-восточный, Ю - южный, ЮЗ - юго-западный, З - западный, СЗ - северо-западный.
Видимость - горизонтальная дальность видимости в метрах или километрах. При видимости от 1 до 10 км при отсутствии осадков обычно наблюдается дымка, при ухудшении видимости до 1 км и менее - туман. В сухую погоду видимость может ухудшаться дымом, пылью или мглою.
Явления - указаны атмосферные явления, наблюдавшиеся в срок или в последний час перед сроком; фигурными скобками обозначены явления, наблюдавшиеся между сроками (за 1-3 часа до срока); квадратными скобками обозначены град или гололедные отложения с указанием их диаметра в мм.
Облачность - указаны через наклонную черту общая и нижняя облачность в баллах и высота нижней границы облаков в метрах; квадратными скобками обозначены формы облаков: Ci - перистые, Cs - перисто-слоистые, Cc - перисто-кучевые, Ac - высококучевые, As - высокослоистые, Sc - слоисто-кучевые, Ns - слоисто-дождевые, Cu - кучевые, Cb - кучево-дождевые. Подробнее классификацию облаков см. в Атласе облаков (PDF).
T - Температура воздуха - температура, измеренная на высоте 2 м над землей.
Td - Температура точки росы - температура, при понижении до которой содержащийся в воздухе водяной пар достигнет насыщения.
f - Относительная влажность воздуха - влажноcть воздуха, измеренная на высоте 2 м над землей.
Te - Эффективная температура - температура, которую ощущает одетый по сезону человек в тени. Характеристика душности погоды. При расчете учитывается влияние влажности воздуха и скорости ветра на теплоощущения человека.
Tes - Эффективная температура на солнце - температура, которую ощущает человек, с поправкой на солнечный нагрев. Характеристика знойности погоды. Зависит от высоты солнца над горизонтом, облачности и скорости ветра. Ночью, в пасмурную погоду, а также при ветре 12 м/с и более поправка равна нулю.
P - Атмосферное давление - приведенное к уровню моря атмосферное давление.
Po - Атмосферное давление - измеренное на уровне метеостанции атмосферное давление.
Tmin - Минимальная температура - минимум температуры воздуха на высоте 2 м над землей.
Tmax - Максимальная температура - максимум температуры воздуха на высоте 2 м над землей.
R - Количество осадков - Количество выпавших осадков за период времени, мм. При наведении курсора мыши на число - период времени, за который выпало указанное количество осадков.
R24 - Количество осадков - Количество выпавших осадков за 24 часа, мм.
S - Снежный покров - Высота снежного покрова, см. При наведении курсора мыши на число - состояние снежного покрова и степень покрытия местности в баллах.